VOE1218 LIPZ-LICJ

Flight info

Callsign VOE1218
Flight time 1h 21m
Altitude 31000
Route CHI6L/04R CHI DCT PIDEP DCT DIPVO DCT NIKMA DCT GIKIN DCT TORLI DCT RONAB/N0422F290 L12 GIANO
Aircraft A320/M-SDFGIJ1RWY/LB1

Departure

Time 2026-05-06 14:14
Airport Venice Marco Polo Airport (LIPZ)

Arrival

Time 2026-05-06 15:35
Airport Falcone–Borsellino Airport (LICJ)
Time Latitude Longitude Altitude Speed Heading
2026-05-06 13:34 45.50614 12.34203 14 ft 0 kts 269°
2026-05-06 14:05 45.50614 12.34224 14 ft 4 kts 268°
2026-05-06 14:05 45.50615 12.34262 14 ft 4 kts 268°
2026-05-06 14:05 45.50617 12.34300 14 ft 4 kts 266°
2026-05-06 14:06 45.50618 12.34336 14 ft 2 kts 266°
2026-05-06 14:06 45.50619 12.34342 15 ft 1 kts 266°
2026-05-06 14:06 45.50619 12.34343 15 ft 0 kts 266°
2026-05-06 14:08 45.50618 12.34341 15 ft 1 kts 255°
2026-05-06 14:08 45.50613 12.34336 15 ft 1 kts 225°
2026-05-06 14:09 45.50602 12.34335 15 ft 3 kts 182°
2026-05-06 14:09 45.50577 12.34334 15 ft 4 kts 181°
2026-05-06 14:09 45.50540 12.34335 16 ft 6 kts 179°
2026-05-06 14:09 45.50493 12.34338 17 ft 7 kts 177°
2026-05-06 14:10 45.50440 12.34344 19 ft 8 kts 175°
2026-05-06 14:10 45.50385 12.34348 21 ft 8 kts 178°
2026-05-06 14:10 45.50321 12.34353 21 ft 11 kts 176°
2026-05-06 14:10 45.50233 12.34360 17 ft 9 kts 176°
2026-05-06 14:11 45.50219 12.34361 17 ft 4 kts 176°
2026-05-06 14:11 45.50155 12.34359 15 ft 14 kts 193°
2026-05-06 14:11 45.50058 12.34252 14 ft 22 kts 224°
2026-05-06 14:11 45.49929 12.34084 12 ft 26 kts 221°
2026-05-06 14:12 45.49789 12.33910 14 ft 27 kts 220°
2026-05-06 14:12 45.49649 12.33733 17 ft 27 kts 222°
2026-05-06 14:12 45.49542 12.33609 19 ft 13 kts 198°
2026-05-06 14:12 45.49463 12.33678 19 ft 16 kts 130°
2026-05-06 14:13 45.49460 12.33838 16 ft 28 kts 46°
2026-05-06 14:13 45.49739 12.34205 12 ft 87 kts 42°
2026-05-06 14:13 45.50330 12.34963 14 ft 140 kts 42°
2026-05-06 14:13 45.51143 12.36032 160 ft 170 kts 44°
2026-05-06 14:14 45.52006 12.37222 764 ft 174 kts 46°
2026-05-06 14:14 45.52886 12.38449 1360 ft 182 kts 46°
2026-05-06 14:14 45.53560 12.40042 1674 ft 198 kts 79°
2026-05-06 14:14 45.53533 12.42011 2228 ft 202 kts 100°
2026-05-06 14:15 45.53312 12.44002 2870 ft 204 kts 100°
2026-05-06 14:15 45.53100 12.46017 3550 ft 207 kts 101°
2026-05-06 14:15 45.52886 12.48074 4159 ft 213 kts 102°
2026-05-06 14:15 45.52668 12.50195 4765 ft 219 kts 102°
2026-05-06 14:16 45.52296 12.52292 5375 ft 217 kts 125°
2026-05-06 14:16 45.51213 12.53736 5943 ft 214 kts 160°
2026-05-06 14:16 45.49725 12.53973 6204 ft 231 kts 190°
2026-05-06 14:16 45.48037 12.53572 6527 ft 253 kts 191°
2026-05-06 14:17 45.46269 12.53126 7181 ft 261 kts 191°
2026-05-06 14:17 45.44465 12.52672 7952 ft 265 kts 191°
2026-05-06 14:17 45.42640 12.52220 8731 ft 268 kts 191°
2026-05-06 14:17 45.40789 12.51770 9487 ft 271 kts 191°
2026-05-06 14:18 45.38917 12.51321 10219 ft 276 kts 192°
2026-05-06 14:18 45.36946 12.50850 10443 ft 299 kts 191°
2026-05-06 14:18 45.34830 12.50356 10787 ft 314 kts 189°
2026-05-06 14:18 45.32622 12.50500 11406 ft 325 kts 168°
2026-05-06 14:19 45.30559 12.51915 12094 ft 337 kts 148°
2026-05-06 14:19 45.28712 12.53997 12672 ft 341 kts 144°
2026-05-06 14:19 45.26891 12.56149 12852 ft 341 kts 144°
2026-05-06 14:19 45.25073 12.58315 12896 ft 341 kts 144°
2026-05-06 14:20 45.23259 12.60481 12896 ft 341 kts 144°
2026-05-06 14:20 45.21444 12.62647 12894 ft 341 kts 145°
2026-05-06 14:20 45.19459 12.64432 13119 ft 337 kts 162°
2026-05-06 14:20 45.17208 12.65203 13790 ft 333 kts 179°
2026-05-06 14:21 45.14918 12.64907 14432 ft 332 kts 198°
2026-05-06 14:21 45.12840 12.63532 15074 ft 332 kts 216°
2026-05-06 14:21 45.11207 12.61219 15648 ft 336 kts 234°
2026-05-06 14:21 45.10198 12.58216 15850 ft 341 kts 253°
2026-05-06 14:22 45.09797 12.54890 15938 ft 344 kts 256°
2026-05-06 14:22 45.08887 12.51808 16500 ft 341 kts 233°
2026-05-06 14:22 45.07207 12.49469 17080 ft 342 kts 214°
2026-05-06 14:22 45.05048 12.48029 17630 ft 347 kts 197°
2026-05-06 14:23 45.02654 12.47446 18181 ft 351 kts 190°
2026-05-06 14:23 45.00220 12.46972 18736 ft 354 kts 190°
2026-05-06 14:23 44.97771 12.46497 19267 ft 357 kts 190°
2026-05-06 14:23 44.95302 12.46019 19783 ft 360 kts 190°
2026-05-06 14:24 44.92806 12.45537 20304 ft 363 kts 190°
2026-05-06 14:24 44.90267 12.45044 20823 ft 365 kts 191°
2026-05-06 14:24 44.87738 12.44547 21305 ft 368 kts 191°
2026-05-06 14:24 44.85191 12.44048 21797 ft 371 kts 191°
2026-05-06 14:25 44.82627 12.43548 22276 ft 374 kts 190°
2026-05-06 14:25 44.80041 12.43052 22731 ft 376 kts 190°
2026-05-06 14:25 44.77441 12.42556 23183 ft 378 kts 190°
2026-05-06 14:25 44.74824 12.42056 23599 ft 381 kts 190°
2026-05-06 14:26 44.72192 12.41551 24019 ft 383 kts 190°
2026-05-06 14:26 44.69543 12.41040 24427 ft 385 kts 191°
2026-05-06 14:26 44.66881 12.40526 24823 ft 387 kts 191°
2026-05-06 14:26 44.64206 12.40008 25205 ft 388 kts 191°
2026-05-06 14:27 44.61523 12.39490 25573 ft 390 kts 191°
2026-05-06 14:27 44.58828 12.38971 25931 ft 392 kts 191°
2026-05-06 14:27 44.56117 12.38451 26293 ft 394 kts 191°
2026-05-06 14:27 44.53399 12.37929 26652 ft 395 kts 191°
2026-05-06 14:28 44.50670 12.37405 26991 ft 397 kts 191°
2026-05-06 14:28 44.47927 12.36879 27338 ft 398 kts 191°
2026-05-06 14:28 44.45177 12.36353 27671 ft 400 kts 191°
2026-05-06 14:28 44.42415 12.35824 27980 ft 401 kts 191°
2026-05-06 14:29 44.39643 12.35295 28289 ft 403 kts 191°
2026-05-06 14:29 44.36826 12.34760 28599 ft 404 kts 191°
2026-05-06 14:29 44.34033 12.34235 28891 ft 406 kts 191°
2026-05-06 14:29 44.31230 12.33706 29179 ft 407 kts 191°
2026-05-06 14:30 44.28420 12.33176 29463 ft 408 kts 192°
2026-05-06 14:30 44.25612 12.32644 29727 ft 409 kts 192°
2026-05-06 14:30 44.22779 12.32108 29980 ft 410 kts 192°
2026-05-06 14:30 44.19952 12.31570 30240 ft 411 kts 192°
2026-05-06 14:31 44.17113 12.31026 30485 ft 412 kts 192°
2026-05-06 14:31 44.14270 12.30482 30710 ft 413 kts 192°
2026-05-06 14:31 44.11428 12.29939 30864 ft 411 kts 192°
2026-05-06 14:31 44.08641 12.29415 30898 ft 397 kts 191°
2026-05-06 14:32 44.03247 12.28407 30896 ft 388 kts 192°
2026-05-06 14:32 43.97910 12.27395 30895 ft 387 kts 192°
2026-05-06 14:33 43.92569 12.26396 30897 ft 387 kts 192°
2026-05-06 14:33 43.87233 12.25389 30896 ft 387 kts 192°
2026-05-06 14:34 43.81902 12.24392 30922 ft 386 kts 192°
2026-05-06 14:34 43.76573 12.23406 30911 ft 386 kts 191°
2026-05-06 14:35 43.71247 12.22422 30906 ft 386 kts 192°
2026-05-06 14:35 43.65919 12.21432 30898 ft 387 kts 192°
2026-05-06 14:36 43.60551 12.20700 30904 ft 390 kts 186°
2026-05-06 14:36 43.55132 12.20431 30904 ft 390 kts 186°
2026-05-06 14:37 43.49673 12.20167 30906 ft 390 kts 186°
2026-05-06 14:37 43.44250 12.19906 30911 ft 390 kts 187°
2026-05-06 14:38 43.38823 12.19638 30918 ft 390 kts 187°
2026-05-06 14:38 43.33398 12.19354 30924 ft 391 kts 187°
2026-05-06 14:39 43.28872 12.19120 30928 ft 392 kts 187°
2026-05-06 14:39 43.23422 12.18858 30929 ft 392 kts 187°
2026-05-06 14:40 43.17978 12.18595 30937 ft 392 kts 187°
2026-05-06 14:40 43.12524 12.18321 30942 ft 392 kts 187°
2026-05-06 14:41 43.07068 12.18008 30943 ft 391 kts 191°
2026-05-06 14:41 43.01773 12.16597 30947 ft 387 kts 197°
2026-05-06 14:42 42.96499 12.15038 30952 ft 389 kts 197°
2026-05-06 14:42 42.91167 12.13464 30955 ft 389 kts 197°
2026-05-06 14:43 42.85874 12.11914 30959 ft 389 kts 197°
2026-05-06 14:43 42.80572 12.10356 30963 ft 390 kts 197°
2026-05-06 14:44 42.75268 12.08795 30965 ft 390 kts 197°
2026-05-06 14:45 42.67307 12.06464 30969 ft 390 kts 197°
2026-05-06 14:45 42.61979 12.04987 30970 ft 393 kts 192°
2026-05-06 14:46 42.56460 12.04712 30974 ft 398 kts 187°
2026-05-06 14:46 42.50931 12.04547 30975 ft 397 kts 187°
2026-05-06 14:47 42.45403 12.04373 30975 ft 397 kts 187°
2026-05-06 14:47 42.39873 12.04207 30977 ft 398 kts 187°
2026-05-06 14:48 42.34341 12.04047 30977 ft 398 kts 187°
2026-05-06 14:48 42.28805 12.03888 30977 ft 398 kts 187°
2026-05-06 14:49 42.23275 12.03720 30977 ft 398 kts 187°
2026-05-06 14:49 42.17700 12.03546 30977 ft 398 kts 187°
2026-05-06 14:50 42.12163 12.03378 30975 ft 398 kts 187°
2026-05-06 14:50 42.06641 12.03219 30975 ft 398 kts 187°
2026-05-06 14:51 42.01092 12.03062 30979 ft 398 kts 187°
2026-05-06 14:51 41.95547 12.02904 30980 ft 398 kts 187°
2026-05-06 14:52 41.90001 12.02743 30983 ft 399 kts 187°
2026-05-06 14:52 41.84455 12.02570 30986 ft 399 kts 187°
2026-05-06 14:53 41.78907 12.02399 30986 ft 399 kts 187°
2026-05-06 14:53 41.73361 12.02243 30988 ft 399 kts 187°
2026-05-06 14:54 41.67813 12.02085 30992 ft 399 kts 187°
2026-05-06 14:54 41.62262 12.01924 30993 ft 399 kts 187°
2026-05-06 14:55 41.56711 12.01712 30994 ft 398 kts 188°
2026-05-06 14:55 41.51192 12.01282 30994 ft 397 kts 189°
2026-05-06 14:56 41.45670 12.00799 30991 ft 397 kts 189°
2026-05-06 14:56 41.40154 12.00357 30987 ft 397 kts 189°
2026-05-06 14:57 41.34592 11.99950 30981 ft 398 kts 189°
2026-05-06 14:57 41.29071 11.99539 30991 ft 397 kts 189°
2026-05-06 14:58 41.23554 11.99126 31003 ft 396 kts 189°
2026-05-06 14:58 41.18059 11.98722 31012 ft 395 kts 189°
2026-05-06 14:59 41.12576 11.98312 31013 ft 394 kts 189°
2026-05-06 14:59 41.07102 11.97900 31014 ft 394 kts 189°
2026-05-06 15:00 41.01630 11.97490 31011 ft 394 kts 189°
2026-05-06 15:00 40.96159 11.97084 31005 ft 394 kts 189°
2026-05-06 15:01 40.90686 11.96678 31003 ft 394 kts 189°
2026-05-06 15:01 40.85214 11.96272 31002 ft 394 kts 189°
2026-05-06 15:02 40.79738 11.95867 31003 ft 394 kts 189°
2026-05-06 15:02 40.74259 11.95465 31003 ft 394 kts 189°
2026-05-06 15:03 40.68780 11.95068 30998 ft 394 kts 189°
2026-05-06 15:03 40.63302 11.94660 30993 ft 395 kts 188°
2026-05-06 15:04 40.57814 11.94255 30992 ft 395 kts 188°
2026-05-06 15:04 40.52311 11.93853 30987 ft 396 kts 188°
2026-05-06 15:05 40.46764 11.93449 30986 ft 397 kts 188°
2026-05-06 15:05 40.41249 11.93035 30986 ft 397 kts 188°
2026-05-06 15:06 40.35716 11.92632 30984 ft 398 kts 188°
2026-05-06 15:06 40.30187 11.92228 30986 ft 398 kts 188°
2026-05-06 15:07 40.24649 11.91828 30985 ft 399 kts 188°
2026-05-06 15:07 40.19108 11.91423 30985 ft 399 kts 188°
2026-05-06 15:08 40.13565 11.91019 30982 ft 399 kts 188°
2026-05-06 15:08 40.08022 11.90621 30983 ft 399 kts 188°
2026-05-06 15:09 40.02469 11.90224 30979 ft 399 kts 188°
2026-05-06 15:09 39.96918 11.89830 30977 ft 400 kts 188°
2026-05-06 15:10 39.91363 11.89429 30976 ft 400 kts 188°
2026-05-06 15:10 39.85771 11.90023 30975 ft 412 kts 171°
2026-05-06 15:11 39.80377 11.92821 30971 ft 419 kts 162°
2026-05-06 15:11 39.75023 11.95848 30971 ft 420 kts 163°
2026-05-06 15:12 39.69625 11.98886 30971 ft 420 kts 163°
2026-05-06 15:12 39.65166 12.01383 30970 ft 420 kts 163°
2026-05-06 15:13 39.59798 12.04394 30969 ft 420 kts 162°
2026-05-06 15:13 39.54425 12.07407 30970 ft 421 kts 162°
2026-05-06 15:14 39.49058 12.10408 30708 ft 416 kts 162°
2026-05-06 15:14 39.46414 12.11887 30198 ft 413 kts 162°
2026-05-06 15:14 39.43784 12.13354 29701 ft 410 kts 162°
2026-05-06 15:14 39.41174 12.14805 29209 ft 407 kts 162°
2026-05-06 15:15 39.38588 12.16245 28733 ft 403 kts 162°
2026-05-06 15:15 39.36024 12.17673 28278 ft 399 kts 163°
2026-05-06 15:15 39.33483 12.19081 27809 ft 396 kts 163°
2026-05-06 15:15 39.30959 12.20476 27363 ft 392 kts 163°
2026-05-06 15:16 39.28461 12.21862 26918 ft 389 kts 163°
2026-05-06 15:16 39.25985 12.23237 26492 ft 386 kts 163°
2026-05-06 15:16 39.23532 12.24600 26071 ft 382 kts 163°
2026-05-06 15:16 39.21095 12.25952 25615 ft 380 kts 163°
2026-05-06 15:17 39.18679 12.27287 25182 ft 377 kts 163°
2026-05-06 15:17 39.16281 12.28610 24726 ft 374 kts 163°
2026-05-06 15:17 39.13861 12.29941 24243 ft 372 kts 163°
2026-05-06 15:17 39.11492 12.31246 23783 ft 369 kts 163°
2026-05-06 15:18 39.09140 12.32546 23316 ft 367 kts 163°
2026-05-06 15:18 39.06800 12.33837 22853 ft 365 kts 163°
2026-05-06 15:18 39.04475 12.35114 22387 ft 363 kts 163°
2026-05-06 15:18 39.02159 12.36388 21927 ft 361 kts 163°
2026-05-06 15:19 38.99858 12.37652 21474 ft 359 kts 163°
2026-05-06 15:19 38.97567 12.38908 21027 ft 357 kts 163°
2026-05-06 15:19 38.95289 12.40155 20584 ft 355 kts 163°
2026-05-06 15:19 38.93027 12.41394 20157 ft 352 kts 163°
2026-05-06 15:20 38.90780 12.42629 19731 ft 350 kts 163°
2026-05-06 15:20 38.88551 12.43853 19306 ft 347 kts 163°
2026-05-06 15:20 38.86335 12.45075 18870 ft 346 kts 162°
2026-05-06 15:20 38.84141 12.46347 18369 ft 347 kts 161°
2026-05-06 15:21 38.81960 12.47660 17878 ft 347 kts 160°
2026-05-06 15:21 38.79781 12.48996 17385 ft 347 kts 160°
2026-05-06 15:21 38.77604 12.50325 16895 ft 347 kts 160°
2026-05-06 15:21 38.75426 12.51650 16397 ft 347 kts 160°
2026-05-06 15:22 38.73252 12.52973 15972 ft 345 kts 159°
2026-05-06 15:22 38.71089 12.54284 15491 ft 344 kts 159°
2026-05-06 15:22 38.68939 12.55580 15159 ft 339 kts 159°
2026-05-06 15:22 38.66809 12.56855 14726 ft 338 kts 159°
2026-05-06 15:23 38.64685 12.58121 14299 ft 336 kts 159°
2026-05-06 15:23 38.62575 12.59379 13888 ft 333 kts 159°
2026-05-06 15:23 38.60479 12.60628 13466 ft 331 kts 159°
2026-05-06 15:23 38.58397 12.61870 13035 ft 329 kts 159°
2026-05-06 15:24 38.56330 12.63108 12615 ft 327 kts 158°
2026-05-06 15:24 38.54276 12.64341 12188 ft 325 kts 158°
2026-05-06 15:24 38.52207 12.65578 11743 ft 323 kts 158°
2026-05-06 15:24 38.50179 12.66789 11313 ft 321 kts 158°
2026-05-06 15:25 38.48166 12.67985 10857 ft 317 kts 158°
2026-05-06 15:25 38.46194 12.69161 10380 ft 304 kts 158°
2026-05-06 15:25 38.44324 12.70278 9975 ft 292 kts 157°
2026-05-06 15:25 38.42545 12.71340 9779 ft 272 kts 157°
2026-05-06 15:26 38.40862 12.72347 9378 ft 263 kts 157°
2026-05-06 15:26 38.39213 12.73329 9086 ft 261 kts 157°
2026-05-06 15:26 38.37572 12.74304 8757 ft 260 kts 156°
2026-05-06 15:26 38.35935 12.75278 8421 ft 259 kts 156°
2026-05-06 15:27 38.34307 12.76247 8085 ft 258 kts 156°
2026-05-06 15:27 38.32683 12.77207 7665 ft 259 kts 156°
2026-05-06 15:27 38.31046 12.78170 7295 ft 258 kts 156°
2026-05-06 15:27 38.29420 12.79128 6824 ft 260 kts 156°
2026-05-06 15:28 38.27802 12.80085 6442 ft 253 kts 156°
2026-05-06 15:28 38.26212 12.81022 5855 ft 250 kts 155°
2026-05-06 15:28 38.24647 12.81945 5371 ft 247 kts 155°
2026-05-06 15:28 38.23083 12.82826 4964 ft 246 kts 157°
2026-05-06 15:29 38.21512 12.83675 4477 ft 245 kts 157°
2026-05-06 15:29 38.19944 12.84511 4001 ft 245 kts 157°
2026-05-06 15:29 38.18362 12.85357 3653 ft 244 kts 157°
2026-05-06 15:29 38.16851 12.86165 3599 ft 231 kts 157°
2026-05-06 15:30 38.15374 12.86957 3530 ft 228 kts 157°
2026-05-06 15:30 38.13950 12.87723 3435 ft 217 kts 157°
2026-05-06 15:30 38.12607 12.88465 3368 ft 203 kts 152°
2026-05-06 15:30 38.11670 12.89668 3253 ft 188 kts 112°
2026-05-06 15:31 38.11569 12.91243 3019 ft 178 kts 72°
2026-05-06 15:31 38.12049 12.92674 2755 ft 169 kts 66°
2026-05-06 15:31 38.12506 12.94011 2513 ft 161 kts 67°
2026-05-06 15:32 38.13342 12.96487 2112 ft 146 kts 67°
2026-05-06 15:32 38.13734 12.97653 1909 ft 142 kts 67°
2026-05-06 15:32 38.14119 12.98796 1707 ft 140 kts 66°
2026-05-06 15:32 38.14499 12.99921 1515 ft 138 kts 66°
2026-05-06 15:33 38.14877 13.01040 1329 ft 137 kts 66°
2026-05-06 15:33 38.15248 13.02140 1149 ft 135 kts 66°
2026-05-06 15:33 38.15619 13.03237 967 ft 135 kts 66°
2026-05-06 15:33 38.15990 13.04330 787 ft 135 kts 66°
2026-05-06 15:34 38.16356 13.05422 599 ft 134 kts 66°
2026-05-06 15:34 38.16718 13.06512 404 ft 134 kts 66°
2026-05-06 15:34 38.17085 13.07601 231 ft 134 kts 68°
2026-05-06 15:34 38.17445 13.08697 66 ft 134 kts 66°
2026-05-06 15:35 38.17775 13.09661 53 ft 97 kts 67°
2026-05-06 15:35 38.17972 13.10252 53 ft 48 kts 67°
2026-05-06 15:35 38.18059 13.10508 53 ft 28 kts 66°
2026-05-06 15:35 38.18140 13.10712 53 ft 20 kts 34°
2026-05-06 15:36 38.18176 13.10637 53 ft 12 kts 271°
2026-05-06 15:36 38.18182 13.10541 53 ft 10 kts 277°
2026-05-06 15:36 38.18191 13.10458 53 ft 9 kts 278°
2026-05-06 15:36 38.18217 13.10394 52 ft 8 kts 314°
2026-05-06 15:37 38.18260 13.10361 53 ft 7 kts 333°
2026-05-06 15:37 38.18302 13.10394 53 ft 12 kts 61°
2026-05-06 15:37 38.18351 13.10484 50 ft 13 kts 27°
2026-05-06 15:37 38.18441 13.10535 51 ft 15 kts 49°
2026-05-06 15:38 38.18483 13.10585 53 ft 7 kts 344°
2026-05-06 15:38 38.18525 13.10563 50 ft 3 kts 337°
2026-05-06 15:38 38.18532 13.10559 53 ft 0 kts 337°